AirNav   ATP
 
 844 users online  

9I0 Havana Regional Airport
Havana, Illinois, USA

GOING TO HAVANA?


FAA INFORMATION EFFECTIVE 08 NOVEMBER 2018

Location

FAA Identifier: 9I0
Lat/Long: 40-13-21.6950N / 090-01-22.0150W
40-13.361583N / 090-01.366917W
40.2226931 / -90.0227819
(estimated)
Elevation: 499 ft. / 152.1 m (surveyed)
Variation: 01E (1985)
From city: 5 miles SE of HAVANA, IL
Time zone: UTC -6 (UTC -5 during Daylight Saving Time)
Zip code: 62644

Airport Operations

Airport use: Open to the public
Activation date: 03/1985
Control tower: no
ARTCC: KANSAS CITY CENTER
FSS: KANKAKEE FLIGHT SERVICE STATION
NOTAMs facility: IKK (NOTAM-D service available)
Attendance: IREG
Wind indicator: lighted
Segmented circle: no
Beacon: white-green (lighted land airport)
Operates sunset to sunrise.

Airport Communications

CTAF: 122.9

Nearby radio navigation aids

VOR radial/distance  VOR name  Freq  Var
SPIr326/27.9SPINNER VORTAC112.7001W
PIAr197/29.4PEORIA VORTAC115.2004E

 
NDB name  Hdg/Dist  Freq  Var  ID
MACOMB125/30.325101EJZY .--- --.. -.--
ABRAHAM277/31.632900EAAA .- .- .-

Airport Services

Fuel available: 100LL
SELF SVC FUEL AVBL 24 HRS.
Parking: tiedowns

Runway Information

Runway 9/27

Dimensions: 2235 x 100 ft. / 681 x 30 m
Surface: turf, in good condition
Runway edge lights: medium intensity
RUNWAY 9  RUNWAY 27
Latitude: 40-13.360833N40-13.362333N
Longitude: 090-01.607000W090-01.126833W
Elevation: 485.5 ft.488.2 ft.
Traffic pattern: leftleft
Touchdown point: yes, no lightsyes, no lights

Airport Ownership and Management from official FAA records

Ownership: Publicly-owned
Owner: HAVANA REGIONAL PORT DISTRICT
17787 SHERWOOD FOREST RD
HAVANA, IL 62644
Phone (217) 725-0628
Manager: BOB MARTIN
18206 QUIVER BEACH RD
HAVANA, IL 62644-6895
Phone 217-871-6251
EMAIL ADDRESS: FLYBYEWIRE@GMAIL.COM (ALL LOWER CASE)

Airport Operational Statistics

Aircraft based on the field: 15
Single engine airplanes: 13
Ultralights: 2
    
Aircraft operations: avg 27/week *
71% local general aviation
29% transient general aviation
* for 12-month period ending 30 April 2017

Additional Remarks

9 FT CROPS E OF RY 27 THLD - SEASONAL.

Instrument Procedures

There are no published instrument procedures at 9I0.

Some nearby airports with instrument procedures:

KCTK - Ingersoll Airport (21 nm N)
C15 - Pekin Municipal Airport (22 nm NE)
KSPI - Abraham Lincoln Capital Airport (28 nm SE)
KIJX - Jacksonville Municipal Airport (29 nm S)
KPIA - General Downing - Peoria International Airport (30 nm NE)
 
Loc | Ops | Rwys | IFR | FBO | Links
Com | Nav | Svcs | Stats | Notes


 
Area around 9I0 (Havana Regional Airport)
 
Road maps at: MapQuest Bing Google
 
Aerial photo
WARNING: Photo may not be current or correct
Aerial photo of 9I0 (Havana Regional Airport)
Taken mid June 2008

Do you have a better or more recent aerial photo of Havana Regional Airport that you would like to share? If so, please send us your photo.

 
Sectional chart

 
Airport distance calculator
Flying to Havana Regional Airport? Find the distance to fly.

From to 9I0

Sunrise and sunset
Times for 18-Nov-2018
 Local
(UTC-6)
 Zulu
(UTC)
Morning civil twilight06:2112:21
Sunrise06:5012:50
Sunset16:4022:40
Evening civil twilight17:1023:10

Current date and time
Zulu (UTC)  19-Nov-2018 00:42:01
Local (UTC-6)  18-Nov-2018 18:42:01
 
METAR
KSPI 
27nm SE 
182352Z 36004KT 10SM OVC012 02/M01 A3022 RMK AO2 SLP240 T00171006 10022 20006 55003 $
KIJX 
29nm S 
182355Z AUTO 00000KT 10SM OVC012 01/M01 A3022 RMK AO2 T00101012 10014 20005
KPIA 
31nm NE 
182354Z 00000KT 10SM OVC018 M01/M03 A3023 RMK AO2 SLP245 T10111028 10006 21011 55001
KAAA 
32nm E 
182355Z AUTO 01004KT 10SM OVC011 02/00 A3022 RMK AO2 T00150000 10024 20015
KMQB 
34nm NW 
182355Z AUTO 00000KT 10SM OVC015 M02/M04 A3025 RMK AO2 T10251040 11002 21025
KI63 
39nm W 
182355Z AUTO 00000KT 10SM OVC011 00/M02 A3021 RMK AO2 T10021020 10009 21006
KGBG 
47nm NW 
182355Z AUTO 29003KT 10SM CLR M05/M07 A3023 RMK AO2 T10501072 11003 21050
KPPQ 
50nm SW 
182355Z AUTO 00000KT 10SM OVC011 02/00 A3023 RMK AO2 T00151002 10018 20006
TAF
KSPI 
27nm SE 
182148Z 1822/1918 35006KT 6SM BR OVC008 TEMPO 1823/1901 OVC012 FM190100 35003KT 6SM BR BKN015 FM190800 VRB03KT 3SM BR OVC010 FM191600 23005KT 5SM BR BKN020
KPIA 
31nm NE 
182146Z 1822/1918 34004KT P6SM BKN018 TEMPO 1823/1901 SCT020 FM190100 VRB02KT P6SM SCT025 FM190700 VRB02KT 4SM BR BKN025
NOTAMs
Click for the latest NOTAMs
NOTAMs are issued by the DoD/FAA and will open in a separate window not controlled by AirNav.

 

 
 

FBO, Fuel Providers, and Aircraft Ground Support

  
 Business Name 
 
 Contact 
 
 Services / Description 
 
Fuel Prices
 
Comments
  
Havana Regional Airport 309-696-4836
no information available

If you are affiliated with Havana Regional Airport and would like to show here your services, contact info, web link, logo, and more, click here
100LL
SS $4.89 
 Updated 21-Aug-2018
 
   1 read write
SS=Self service
Update Fuel Prices
 

Would you like to see your business listed on this page?

 If your business provides an interesting product or service to pilots, flight crews, aircraft, or users of the Havana Regional Airport, you should consider listing it here.  To start the listing process, click on the button below
 
Add a business
 

Other Pages about Havana Regional Airport

www.havanaregional.com
 
Update a link
 
Copyright © AirNav, LLC. All rights reserved. Privacy Policy  Contact